Accueil
METAR-TAF:

METAR-TAF

Aéroports :

Alpnach, Suisse

latitude: 46-56-19N, longitude: 8-17-03E, altitude: 440 m

Observation

Le bulletin a été fait il y a 39 minutes, à 22:50 UTC
Vent calme
Température -1°C
Humidité 100%
Pression 1021 hPa
Visibilité: 0500 m
brouillard

METAR: LSMA 252250Z AUTO 00000KT 0500NDV R01/0600N R19/0500N FG VV001 M01/M01 Q1021 RMK

Heure: 00:29 (23:29 UTC)


TAF: absent

Observations et prévisions météorologiques de plus de 4000 aéroports (messages METAR et TAF).

Les stations disponibles sont représentées par des disques jaunes et rouges sur la carte.

Passer la souris dessus pour voir le nom de la station.

Cliquer dessus pour voir les observations et prévisions météorologiques.

Pour changer de carte: cliquez sur les boutons verts avec une croix noire pour zoomer, sur le bouton vert avec un tiret pour effectuer un zoom arrière, ou sur les flèches vertes pour les cartes adjacentes.


METAR-TAF: